Regional Weather Roundup
Issued by NWS Charleston, SC

Current Version | Previous Version | Graphics & Text | Print | Product List | Glossary On
Versions: 1 2 3 4 5 6 7 8 9 10 11 12 13 14 15 16 17 18 19 20 21 22 23 24 25 26 27 28 29 30 31 32 33 34 35 36 37 38 39 40 41 42 43 44 45 46 47 48 49 50
000 ASUS42 KCHS 261627 RWRCHS REGIONAL WEATHER ROUNDUP NATIONAL WEATHER SERVICE CHARLESTON SC 1200 PM EDT MON JUN 26 2017 NOTE: "FAIR" INDICATES FEW OR NO CLOUDS BELOW 12,000 FEET WITH NO SIGNIFICANT WEATHER AND/OR OBSTRUCTIONS TO VISIBILITY. NOT ALL STATIONS ARE QUALITY CONTROLLED. USE DATA WITH CAUTION... ESPECIALLY DEWPOINT OBSERVATIONS. SCZ027-030-031-034>040-042>050-261700- ...SOUTHEAST SOUTH CAROLINA... CITY SKY/WX TMP DP RH WIND PRES REMARKS N CHARLESTON PTSUNNY 82 66 58 NE13 30.10S WATERFRONT PRK N/A 80 70 71 NE7G14 30.08R JOHNS ISLAND PTSUNNY 82 70 65 NE12G18 30.09S PINOPOLIS N/A 79 68 69 NE9 30.05 MONCKS CORNER FAIR 81 59 47 NE10G16 30.11S SUMMERVILLE FAIR 81 66 61 N9 30.11S BEAUFORT MCAS PTSUNNY 84 73 69 E8 30.09S HX 90 BEAUFORT ARPT PTSUNNY 81 72 74 NE9 30.09S HILTON HEAD IS PTSUNNY 81 75 83 NE6 30.10R WALTERBORO PTSUNNY 81 68 65 NE8 30.11F ALLENDALE PTSUNNY 81 61 50 VRB7G17 30.11F ...SOUTHERN MIDLANDS AND PEE DEE... CITY SKY/WX TMP DP RH WIND PRES REMARKS GEORGETOWN FAIR 79 63 57 NE8 30.11F KINGSTREE FAIR 79 55 44 NE5 30.12F ORANGEBURG CLOUDY 80 55 42 NE8 30.13S BARNWELL PTSUNNY 82 61 47 NE12 30.13F AIKEN PTSUNNY 79 54 41 NE13G20 30.19R MANNING FAIR 81 64 57 NE17 30.12S COLUMBIA PTSUNNY 85 50 29 NE8G16 30.14S SUMTER MOSUNNY 82 53 37 NE13 30.11F FLORENCE MOSUNNY 82 55 39 N12 30.13F MYRTLE BEACH MOSUNNY 81 61 50 NE12 30.12R N MYRTLE BEACH PTSUNNY 81 59 47 NE13 30.11R $$ GAZ063-065-086>088-099>101-113>116-118-119-134>141-150-261700- ...SOUTHEAST GEORGIA... CITY SKY/WX TMP DP RH WIND PRES REMARKS SAVANNAH ARPT PTSUNNY 84 71 65 N7 30.09F HUNTER AAF PTSUNNY 82 74 75 N5 30.07S FORT STEWART MOSUNNY 81 73 78 N3 30.07F STATESBORO CLOUDY 83 69 62 NE5 30.11S SYLVANIA MOSUNNY 83 71 67 NE5 30.12F CLAXTON PTSUNNY 81 71 70 NE6 30.10F ...CSRA...CENTRAL AND FAR SOUTHEAST GEORGIA... CITY SKY/WX TMP DP RH WIND PRES REMARKS THOMSON MOSUNNY 80 58 46 E10 30.21S AUGUSTA-BUSH PTSUNNY 83 60 45 NE12 30.14S AUGUSTA-DANIEL MOSUNNY 83 56 39 N10 30.16R SWAINSBORO FAIR 81 64 57 NE8 30.13F VIDALIA CLOUDY 84 73 70 NE10 30.10F HX 91 EASTMAN PTSUNNY 84 63 48 NE8 30.14R HAZLEHURST FAIR 84 78 81 CALM 30.09F HX 95 ALMA CLOUDY 84 73 69 VRB5 30.09F HX 90 WAYCROSS CLOUDY 87 78 74 N8 30.08F HX 100 JESUP CLOUDY 81 72 74 NE3 30.09F BAXLEY PTSUNNY 82 82 100 NE6 30.09F HX 97 BRUNSWICK PTSUNNY 86 77 74 NW5 30.08F HX 97 SAINT SIMONS MOSUNNY 85 74 69 N7 30.08S HX 92 $$ SCZ027-028-034-036>038-045-046-048>050-GAZ119-141-261700- ...LAKE AND SUPPLEMENTAL COASTAL OBSERVATIONS... STATION/POSITION TIME TEMP WIND PRES WAVE SWELL AIR SEA DIR/SP/G HT/PER HT/PER/DIR (UTC) (F) (DEG/KT/KT) (MB) (FT/S) (FT/S/D) WINYAH BAY 1530 78 40/ 12 1019.0S LAKE MURRAY 1620 80 70/ 2/ 7 1019.6 ACE BASIN NERRS 1545 82 30/ 4 1019.0S FORT PULASKI 1600 80 84 90/ 4/ 6 1019.2 SAPELO ISLAND 1600 85 CALM 1019.0 $$ ANZ835-935-AMZ111-154-330-350-352-354-370-450-454-472-261700- ...C-MAN AND BUOY OBSERVATIONS... STATION/POSITION TIME TEMP WIND PRES WAVE SWELL AIR SEA DIR/SP/G HT/PER HT/PER/DIR (UTC) (F) (DEG/KT/KT) (MB) (FT/S) (FT/S/D) BUOY 41004 1610 77 81 60/ 12/ 16 1017.8 BUOY 41008 1550 80 82 340/ 8/ 10 1018.2F 2/ 9 2/ 80/ 9 FOLLY BEACH CMAN 1600 79 30/ 13/ 15 1019.5S CAPERS NEARSHORE 1608 85 83 50/ 17/ 21 1018.4R FRIPP NEARSHORE 1608 80 83 60/ 12/ 16 1018.2R STATION/POSITION TIME TEMP WIND PRES WAVE SWELL AIR SEA DIR/SP/G HT/PER HT/PER/DIR (UTC) (F) (DEG/KT/KT) (MB) (FT/S) (FT/S/D) 5E ST. MARYS GA 1600 80 N/A 1/ 8 FRYING PAN BUOY 1610 77 80 90/ 12/ 14 1018.5 BUOY 41025 1550 77 81 30/ 6/ 8 1018.8S 2/ 8 2/100/ 8 CAPE LOOKOUT NC 1600 78 60/ 7/ 8 1019.0R BUOY 41002 1550 81 81 230/ 10/ 12 1019.0S 3/ 6 2/220/ 6 BUOY 41010 1610 83 84 190/ 8/ 10 1019.0 ST AUGUSTINE FL 1600 78 78 70/ 8/ 9 1018.9F $$

USA.gov is the U.S. government's official web portal to all federal, state and local government web resources and services.